Year,Month,Day,Hour,Minute,Value (Times are PST for temperature in C)
2014,04,12,00,00,7.70
2014,04,12,00,01,7.70
2014,04,12,00,02,7.80
2014,04,12,00,03,7.80
2014,04,12,00,04,7.80
2014,04,12,00,05,7.80
2014,04,12,00,06,7.80
2014,04,12,00,07,7.80
2014,04,12,00,08,7.80
2014,04,12,00,09,7.80
2014,04,12,00,10,7.90
2014,04,12,00,11,7.90
2014,04,12,00,12,7.90
2014,04,12,00,13,7.90
2014,04,12,00,14,7.90
2014,04,12,00,15,7.90
2014,04,12,00,16,8.00
2014,04,12,00,17,8.00
2014,04,12,00,18,8.00
2014,04,12,00,19,8.00
2014,04,12,00,20,8.00
2014,04,12,00,21,8.00
2014,04,12,00,22,8.00
2014,04,12,00,23,8.00
2014,04,12,00,24,8.00
2014,04,12,00,25,8.00
2014,04,12,00,26,8.00
2014,04,12,00,27,8.00
2014,04,12,00,28,8.00
2014,04,12,00,29,8.00
2014,04,12,00,30,7.90
2014,04,12,00,31,7.90
2014,04,12,00,32,7.90
2014,04,12,00,33,7.80
2014,04,12,00,34,7.80
2014,04,12,00,35,7.80
2014,04,12,00,36,7.80
2014,04,12,00,37,7.70
2014,04,12,00,38,7.70
2014,04,12,00,39,7.70
2014,04,12,00,40,7.60
2014,04,12,00,41,7.60
2014,04,12,00,42,7.60
2014,04,12,00,43,7.50
2014,04,12,00,44,7.50
2014,04,12,00,45,7.40
2014,04,12,00,46,7.40
2014,04,12,00,47,7.40
2014,04,12,00,48,7.40
2014,04,12,00,49,7.40
2014,04,12,00,50,7.40
2014,04,12,00,51,7.40
2014,04,12,00,52,7.40
2014,04,12,00,53,7.40
2014,04,12,00,54,7.40
2014,04,12,00,55,7.40
2014,04,12,00,56,7.40
2014,04,12,00,57,7.40
2014,04,12,00,58,7.40
2014,04,12,00,59,7.30
2014,04,12,01,00,7.30
2014,04,12,01,01,7.30
2014,04,12,01,02,7.30
2014,04,12,01,03,7.30
2014,04,12,01,04,7.30
2014,04,12,01,05,7.30
2014,04,12,01,06,7.30
2014,04,12,01,07,7.20
2014,04,12,01,08,7.20
2014,04,12,01,09,7.20
2014,04,12,01,10,7.20
2014,04,12,01,11,7.20
2014,04,12,01,12,7.20
2014,04,12,01,13,7.10
2014,04,12,01,14,7.10
2014,04,12,01,15,7.10
2014,04,12,01,16,7.10
2014,04,12,01,17,7.10
2014,04,12,01,18,7.00
2014,04,12,01,19,7.00
2014,04,12,01,20,7.00
2014,04,12,01,21,7.00
2014,04,12,01,22,7.00
2014,04,12,01,23,7.00
2014,04,12,01,24,7.00
2014,04,12,01,25,7.00
2014,04,12,01,26,7.00
2014,04,12,01,27,6.90
2014,04,12,01,28,6.90
2014,04,12,01,29,6.90
2014,04,12,01,30,6.90
2014,04,12,01,31,6.90
2014,04,12,01,32,6.80
2014,04,12,01,33,6.80
2014,04,12,01,34,6.80
2014,04,12,01,35,6.80
2014,04,12,01,36,6.80
2014,04,12,01,37,6.80
2014,04,12,01,38,6.80
2014,04,12,01,39,6.80
2014,04,12,01,40,6.80
2014,04,12,01,41,6.80
2014,04,12,01,42,6.80
2014,04,12,01,43,6.80
2014,04,12,01,44,6.80
2014,04,12,01,45,6.80
2014,04,12,01,46,6.80
2014,04,12,01,47,6.80
2014,04,12,01,48,6.80
2014,04,12,01,49,6.80
2014,04,12,01,50,6.80
2014,04,12,01,51,6.80
2014,04,12,01,52,6.80
2014,04,12,01,53,6.80
2014,04,12,01,54,6.80
2014,04,12,01,55,6.80
2014,04,12,01,56,6.90
2014,04,12,01,57,6.90
2014,04,12,01,58,6.90
2014,04,12,01,59,6.90
2014,04,12,02,00,6.90
2014,04,12,02,01,6.90
2014,04,12,02,02,6.90
2014,04,12,02,03,6.90
2014,04,12,02,04,6.90
2014,04,12,02,05,6.90
2014,04,12,02,06,6.90
2014,04,12,02,07,6.90
2014,04,12,02,08,6.90
2014,04,12,02,09,6.90
2014,04,12,02,10,6.90
2014,04,12,02,11,6.90
2014,04,12,02,12,6.90
2014,04,12,02,13,6.90
2014,04,12,02,14,6.90
2014,04,12,02,15,6.90
2014,04,12,02,16,6.90
2014,04,12,02,17,6.90
2014,04,12,02,18,7.00
2014,04,12,02,19,7.00
2014,04,12,02,20,7.10
2014,04,12,02,21,7.10
2014,04,12,02,22,7.10
2014,04,12,02,23,7.10
2014,04,12,02,24,7.20
2014,04,12,02,25,7.20
2014,04,12,02,26,7.20
2014,04,12,02,27,7.10
2014,04,12,02,28,7.10
2014,04,12,02,29,7.10
2014,04,12,02,30,7.10
2014,04,12,02,31,7.10
2014,04,12,02,32,7.10
2014,04,12,02,33,7.10
2014,04,12,02,34,7.10
2014,04,12,02,35,7.10
2014,04,12,02,36,7.10
2014,04,12,02,37,7.10
2014,04,12,02,38,7.00
2014,04,12,02,39,7.00
2014,04,12,02,40,7.00
2014,04,12,02,41,6.90
2014,04,12,02,42,6.90
2014,04,12,02,43,6.90
2014,04,12,02,44,6.90
2014,04,12,02,45,6.90
2014,04,12,02,46,6.80
2014,04,12,02,47,6.80
2014,04,12,02,48,6.80
2014,04,12,02,49,6.80
2014,04,12,02,50,6.80
2014,04,12,02,51,6.80
2014,04,12,02,52,6.70
2014,04,12,02,53,6.70
2014,04,12,02,54,6.70
2014,04,12,02,55,6.70
2014,04,12,02,56,6.70
2014,04,12,02,57,6.70
2014,04,12,02,58,6.70
2014,04,12,02,59,6.60
2014,04,12,03,00,6.60
2014,04,12,03,01,6.60
2014,04,12,03,02,6.60
2014,04,12,03,03,6.60
2014,04,12,03,04,6.50
2014,04,12,03,05,6.50
2014,04,12,03,06,6.50
2014,04,12,03,07,6.50
2014,04,12,03,08,6.50
2014,04,12,03,09,6.40
2014,04,12,03,10,6.50
2014,04,12,03,11,6.50
2014,04,12,03,12,6.50
2014,04,12,03,13,6.50
2014,04,12,03,14,6.50
2014,04,12,03,15,6.60
2014,04,12,03,16,6.60
2014,04,12,03,17,6.60
2014,04,12,03,18,6.60
2014,04,12,03,19,6.60
2014,04,12,03,20,6.60
2014,04,12,03,21,6.60
2014,04,12,03,22,6.60
2014,04,12,03,23,6.60
2014,04,12,03,24,6.50
2014,04,12,03,25,6.50
2014,04,12,03,26,6.50
2014,04,12,03,27,6.50
2014,04,12,03,28,6.50
2014,04,12,03,29,6.50
2014,04,12,03,30,6.50
2014,04,12,03,31,6.50
2014,04,12,03,32,6.50
2014,04,12,03,33,6.50
2014,04,12,03,34,6.50
2014,04,12,03,35,6.50
2014,04,12,03,36,6.60
2014,04,12,03,37,6.60
2014,04,12,03,38,6.60
2014,04,12,03,39,6.60
2014,04,12,03,40,6.60
2014,04,12,03,41,6.60
2014,04,12,03,42,6.60
2014,04,12,03,43,6.60
2014,04,12,03,44,6.50
2014,04,12,03,45,6.50
2014,04,12,03,46,6.50
2014,04,12,03,47,6.50
2014,04,12,03,48,6.50
2014,04,12,03,49,6.40
2014,04,12,03,50,6.40
2014,04,12,03,51,6.40
2014,04,12,03,52,6.40
2014,04,12,03,53,6.40
2014,04,12,03,54,6.50
2014,04,12,03,55,6.50
2014,04,12,03,56,6.50
2014,04,12,03,57,6.50
2014,04,12,03,58,6.60
2014,04,12,03,59,6.60
2014,04,12,04,00,6.60
2014,04,12,04,01,6.60
2014,04,12,04,02,6.60
2014,04,12,04,03,6.60
2014,04,12,04,04,6.70
2014,04,12,04,05,6.70
2014,04,12,04,06,6.70
2014,04,12,04,07,6.70
2014,04,12,04,08,6.70
2014,04,12,04,09,6.70
2014,04,12,04,10,6.70
2014,04,12,04,11,6.70
2014,04,12,04,12,6.70
2014,04,12,04,13,6.70
2014,04,12,04,14,6.70
2014,04,12,04,15,6.70
2014,04,12,04,16,6.70
2014,04,12,04,17,6.60
2014,04,12,04,18,6.70
2014,04,12,04,19,6.60
2014,04,12,04,20,6.60
2014,04,12,04,21,6.70
2014,04,12,04,22,6.70
2014,04,12,04,23,6.60
2014,04,12,04,24,6.60
2014,04,12,04,25,6.60
2014,04,12,04,26,6.60
2014,04,12,04,27,6.60
2014,04,12,04,28,6.60
2014,04,12,04,29,6.60
2014,04,12,04,30,6.50
2014,04,12,04,31,6.50
2014,04,12,04,32,6.50
2014,04,12,04,33,6.50
2014,04,12,04,34,6.50
2014,04,12,04,35,6.50
2014,04,12,04,36,6.50
2014,04,12,04,37,6.50
2014,04,12,04,38,6.40
2014,04,12,04,39,6.40
2014,04,12,04,40,6.40
2014,04,12,04,41,6.40
2014,04,12,04,42,6.40
2014,04,12,04,43,6.40
2014,04,12,04,44,6.30
2014,04,12,04,45,6.30
2014,04,12,04,46,6.30
2014,04,12,04,47,6.30
2014,04,12,04,48,6.30
2014,04,12,04,49,6.30
2014,04,12,04,50,6.30
2014,04,12,04,51,6.30
2014,04,12,04,52,6.30
2014,04,12,04,53,6.30
2014,04,12,04,54,6.30
2014,04,12,04,55,6.30
2014,04,12,04,56,6.20
2014,04,12,04,57,6.20
2014,04,12,04,58,6.20
2014,04,12,04,59,6.20
2014,04,12,05,00,6.20
2014,04,12,05,01,6.20
2014,04,12,05,02,6.20
2014,04,12,05,03,6.20
2014,04,12,05,04,6.20
2014,04,12,05,05,6.20
2014,04,12,05,06,6.20
2014,04,12,05,07,6.20
2014,04,12,05,08,6.20
2014,04,12,05,09,6.20
2014,04,12,05,10,6.10
2014,04,12,05,11,6.10
2014,04,12,05,12,6.10
2014,04,12,05,13,6.10
2014,04,12,05,14,6.10
2014,04,12,05,15,6.10
2014,04,12,05,16,6.10
2014,04,12,05,17,6.10
2014,04,12,05,18,6.10
2014,04,12,05,19,6.10
2014,04,12,05,20,6.10
2014,04,12,05,21,6.10
2014,04,12,05,22,6.10
2014,04,12,05,23,6.10
2014,04,12,05,24,6.10
2014,04,12,05,25,6.10
2014,04,12,05,26,6.10
2014,04,12,05,27,6.10
2014,04,12,05,28,6.10
2014,04,12,05,29,6.10
2014,04,12,05,30,6.10
2014,04,12,05,31,6.10
2014,04,12,05,32,6.10
2014,04,12,05,33,6.10
2014,04,12,05,34,6.10
2014,04,12,05,35,6.10
2014,04,12,05,36,6.10
2014,04,12,05,37,6.10
2014,04,12,05,38,6.10
2014,04,12,05,39,6.20
2014,04,12,05,40,6.20
2014,04,12,05,41,6.20
2014,04,12,05,42,6.20
2014,04,12,05,43,6.20
2014,04,12,05,44,6.20
2014,04,12,05,45,6.10
2014,04,12,05,46,6.10
2014,04,12,05,47,6.10
2014,04,12,05,48,6.10
2014,04,12,05,49,6.10
2014,04,12,05,50,6.10
2014,04,12,05,51,6.10
2014,04,12,05,52,6.00
2014,04,12,05,53,6.00
2014,04,12,05,54,6.00
2014,04,12,05,55,6.00
2014,04,12,05,56,6.00
2014,04,12,05,57,6.00
2014,04,12,05,58,6.00
2014,04,12,05,59,6.00
2014,04,12,06,00,5.90
2014,04,12,06,01,5.90
2014,04,12,06,02,5.90
2014,04,12,06,03,5.90
2014,04,12,06,04,5.90
2014,04,12,06,05,5.90
2014,04,12,06,06,5.90
2014,04,12,06,07,5.90
2014,04,12,06,08,5.90
2014,04,12,06,09,5.90
2014,04,12,06,10,5.90
2014,04,12,06,11,5.90
2014,04,12,06,12,5.90
2014,04,12,06,13,5.90
2014,04,12,06,14,5.90
2014,04,12,06,15,6.00
2014,04,12,06,16,6.00
2014,04,12,06,17,6.00
2014,04,12,06,18,6.00
2014,04,12,06,19,6.00
2014,04,12,06,20,6.00
2014,04,12,06,21,6.00
2014,04,12,06,22,6.00
2014,04,12,06,23,6.00
2014,04,12,06,24,6.00
2014,04,12,06,25,6.00
2014,04,12,06,26,6.00
2014,04,12,06,27,6.00
2014,04,12,06,28,6.00
2014,04,12,06,29,6.00
2014,04,12,06,30,6.00
2014,04,12,06,31,6.10
2014,04,12,06,32,6.10
2014,04,12,06,33,6.10
2014,04,12,06,34,6.10
2014,04,12,06,35,6.10
2014,04,12,06,36,6.10
2014,04,12,06,37,6.10
2014,04,12,06,38,6.10
2014,04,12,06,39,6.10
2014,04,12,06,40,6.10
2014,04,12,06,41,6.10
2014,04,12,06,42,6.00
2014,04,12,06,43,6.00
2014,04,12,06,44,6.00
2014,04,12,06,45,6.00
2014,04,12,06,46,6.00
2014,04,12,06,47,6.00
2014,04,12,06,48,6.00
2014,04,12,06,49,6.00
2014,04,12,06,50,6.00
2014,04,12,06,51,6.00
2014,04,12,06,52,5.90
2014,04,12,06,53,5.90
2014,04,12,06,54,5.90
2014,04,12,06,55,5.90
2014,04,12,06,56,5.90
2014,04,12,06,57,5.90
2014,04,12,06,58,5.90
2014,04,12,06,59,5.90
2014,04,12,07,00,5.90
2014,04,12,07,01,5.90
2014,04,12,07,02,5.90
2014,04,12,07,03,5.90
2014,04,12,07,04,5.90
2014,04,12,07,05,5.90
2014,04,12,07,06,6.00
2014,04,12,07,07,6.00
2014,04,12,07,08,6.00
2014,04,12,07,09,6.00
2014,04,12,07,10,6.00
2014,04,12,07,11,6.00
2014,04,12,07,12,6.00
2014,04,12,07,13,6.00
2014,04,12,07,14,6.00
2014,04,12,07,15,6.00
2014,04,12,07,16,6.00
2014,04,12,07,17,6.00
2014,04,12,07,18,6.00
2014,04,12,07,19,6.00
2014,04,12,07,20,6.00
2014,04,12,07,21,6.00
2014,04,12,07,22,6.00
2014,04,12,07,23,6.00
2014,04,12,07,24,6.00
2014,04,12,07,25,6.10
2014,04,12,07,26,6.00
2014,04,12,07,27,6.10
2014,04,12,07,28,6.10
2014,04,12,07,29,6.10
2014,04,12,07,30,6.10
2014,04,12,07,31,6.10
2014,04,12,07,32,6.10
2014,04,12,07,33,6.10
2014,04,12,07,34,6.10
2014,04,12,07,35,6.10
2014,04,12,07,36,6.10
2014,04,12,07,37,6.10
2014,04,12,07,38,6.20
2014,04,12,07,39,6.20
2014,04,12,07,40,6.20
2014,04,12,07,41,6.20
2014,04,12,07,42,6.20
2014,04,12,07,43,6.30
2014,04,12,07,44,6.30
2014,04,12,07,45,6.30
2014,04,12,07,46,6.30
2014,04,12,07,47,6.30
2014,04,12,07,48,6.40
2014,04,12,07,49,6.40
2014,04,12,07,50,6.40
2014,04,12,07,51,6.40
2014,04,12,07,52,6.40
2014,04,12,07,53,6.40
2014,04,12,07,54,6.40
2014,04,12,07,55,6.40
2014,04,12,07,56,6.50
2014,04,12,07,57,6.50
2014,04,12,07,58,6.60
2014,04,12,07,59,6.60
2014,04,12,08,00,6.60
2014,04,12,08,01,6.60
2014,04,12,08,02,6.70
2014,04,12,08,03,6.70
2014,04,12,08,04,6.70
2014,04,12,08,05,6.70
2014,04,12,08,06,6.80
2014,04,12,08,07,6.80
2014,04,12,08,08,6.80
2014,04,12,08,09,6.80
2014,04,12,08,10,6.80
2014,04,12,08,11,6.90
2014,04,12,08,12,6.90
2014,04,12,08,13,6.90
2014,04,12,08,14,6.90
2014,04,12,08,15,7.00
2014,04,12,08,16,7.00
2014,04,12,08,17,7.00
2014,04,12,08,18,7.00
2014,04,12,08,19,7.00
2014,04,12,08,20,7.10
2014,04,12,08,21,7.10
2014,04,12,08,22,7.10
2014,04,12,08,23,7.10
2014,04,12,08,24,7.10
2014,04,12,08,25,7.20
2014,04,12,08,26,7.20
2014,04,12,08,27,7.20
2014,04,12,08,28,7.20
2014,04,12,08,29,7.20
2014,04,12,08,30,7.20
2014,04,12,08,31,7.20
2014,04,12,08,32,7.30
2014,04,12,08,33,7.30
2014,04,12,08,34,7.30
2014,04,12,08,35,7.30
2014,04,12,08,36,7.30
2014,04,12,08,37,7.40
2014,04,12,08,38,7.40
2014,04,12,08,39,7.40
2014,04,12,08,40,7.40
2014,04,12,08,41,7.40
2014,04,12,08,42,7.50
2014,04,12,08,43,7.50
2014,04,12,08,44,7.60
2014,04,12,08,45,7.70
2014,04,12,08,46,7.70
2014,04,12,08,47,7.80
2014,04,12,08,48,7.80
2014,04,12,08,49,7.90
2014,04,12,08,50,7.90
2014,04,12,08,51,8.00
2014,04,12,08,52,8.00
2014,04,12,08,53,8.00
2014,04,12,08,54,8.10
2014,04,12,08,55,8.20
2014,04,12,08,56,8.20
2014,04,12,08,57,8.20
2014,04,12,08,58,8.20
2014,04,12,08,59,8.30
2014,04,12,09,00,8.30
2014,04,12,09,01,8.30
2014,04,12,09,02,8.40
2014,04,12,09,03,8.40
2014,04,12,09,04,8.50
2014,04,12,09,05,8.50
2014,04,12,09,06,8.60
2014,04,12,09,07,8.60
2014,04,12,09,08,8.60
2014,04,12,09,09,8.60
2014,04,12,09,10,8.60
2014,04,12,09,11,8.70
2014,04,12,09,12,8.70
2014,04,12,09,13,8.70
2014,04,12,09,14,8.80
2014,04,12,09,15,8.80
2014,04,12,09,16,8.80
2014,04,12,09,17,8.80
2014,04,12,09,18,8.80
2014,04,12,09,19,8.80
2014,04,12,09,20,8.80
2014,04,12,09,21,8.80
2014,04,12,09,22,8.80
2014,04,12,09,23,8.80
2014,04,12,09,24,8.80
2014,04,12,09,25,8.80
2014,04,12,09,26,8.80
2014,04,12,09,27,8.80
2014,04,12,09,28,8.90
2014,04,12,09,29,8.90
2014,04,12,09,30,8.90
2014,04,12,09,31,9.00
2014,04,12,09,32,9.00
2014,04,12,09,33,9.00
2014,04,12,09,34,9.00
2014,04,12,09,35,9.10
2014,04,12,09,36,9.10
2014,04,12,09,37,9.20
2014,04,12,09,38,9.20
2014,04,12,09,39,9.20
2014,04,12,09,40,9.20
2014,04,12,09,41,9.20
2014,04,12,09,42,9.30
2014,04,12,09,43,9.30
2014,04,12,09,44,9.30
2014,04,12,09,45,9.30
2014,04,12,09,46,9.30
2014,04,12,09,47,9.30
2014,04,12,09,48,9.30
2014,04,12,09,49,9.30
2014,04,12,09,50,9.40
2014,04,12,09,51,9.40
2014,04,12,09,52,9.40
2014,04,12,09,53,9.50
2014,04,12,09,54,9.50
2014,04,12,09,55,9.50
2014,04,12,09,56,9.60
2014,04,12,09,57,9.60
2014,04,12,09,58,9.60
2014,04,12,09,59,9.70
2014,04,12,10,00,9.70
2014,04,12,10,01,9.70
2014,04,12,10,02,9.80
2014,04,12,10,03,9.80
2014,04,12,10,04,9.80
2014,04,12,10,05,9.80
2014,04,12,10,06,9.70
2014,04,12,10,07,9.70
2014,04,12,10,08,9.70
2014,04,12,10,09,9.60
2014,04,12,10,10,9.50
2014,04,12,10,11,9.50
2014,04,12,10,12,9.40
2014,04,12,10,13,9.40
2014,04,12,10,14,9.30
2014,04,12,10,15,9.30
2014,04,12,10,16,9.20
2014,04,12,10,17,9.20
2014,04,12,10,18,9.30
2014,04,12,10,19,9.30
2014,04,12,10,20,9.40
2014,04,12,10,21,9.50
2014,04,12,10,22,9.50
2014,04,12,10,23,9.50
2014,04,12,10,24,9.60
2014,04,12,10,25,9.60
2014,04,12,10,26,9.60
2014,04,12,10,27,9.60
2014,04,12,10,28,9.60
2014,04,12,10,29,9.60
2014,04,12,10,30,9.60
2014,04,12,10,31,9.60
2014,04,12,10,32,9.60
2014,04,12,10,33,9.60
2014,04,12,10,34,9.60
2014,04,12,10,35,9.70
2014,04,12,10,36,9.70
2014,04,12,10,37,9.70
2014,04,12,10,38,9.70
2014,04,12,10,39,9.70
2014,04,12,10,40,9.70
2014,04,12,10,41,9.70
2014,04,12,10,42,9.70
2014,04,12,10,43,9.70
2014,04,12,10,44,9.80
2014,04,12,10,45,9.80
2014,04,12,10,46,9.80
2014,04,12,10,47,9.80
2014,04,12,10,48,9.80
2014,04,12,10,49,9.80
2014,04,12,10,50,9.80
2014,04,12,10,51,9.80
2014,04,12,10,52,9.80
2014,04,12,10,53,9.80
2014,04,12,10,54,9.90
2014,04,12,10,55,9.90
2014,04,12,10,56,10.00
2014,04,12,10,57,9.90
2014,04,12,10,58,9.90
2014,04,12,10,59,9.80
2014,04,12,11,00,9.80
2014,04,12,11,01,9.80
2014,04,12,11,02,9.70
2014,04,12,11,03,9.70
2014,04,12,11,04,9.70
2014,04,12,11,05,9.70
2014,04,12,11,06,9.70
2014,04,12,11,07,9.80
2014,04,12,11,08,9.90
2014,04,12,11,09,9.90
2014,04,12,11,10,10.00
2014,04,12,11,11,10.10
2014,04,12,11,12,10.10
2014,04,12,11,13,10.20
2014,04,12,11,14,10.20
2014,04,12,11,15,10.20
2014,04,12,11,16,10.20
2014,04,12,11,17,10.20
2014,04,12,11,18,10.10
2014,04,12,11,19,10.10
2014,04,12,11,20,10.10
2014,04,12,11,21,10.20
2014,04,12,11,22,10.20
2014,04,12,11,23,10.20
2014,04,12,11,24,10.30
2014,04,12,11,25,10.30
2014,04,12,11,26,10.30
2014,04,12,11,27,10.30
2014,04,12,11,28,10.30
2014,04,12,11,29,10.40
2014,04,12,11,30,10.40
2014,04,12,11,31,10.40
2014,04,12,11,32,10.40
2014,04,12,11,33,10.50
2014,04,12,11,34,10.50
2014,04,12,11,35,10.60
2014,04,12,11,36,10.70
2014,04,12,11,37,10.70
2014,04,12,11,38,10.70
2014,04,12,11,39,10.80
2014,04,12,11,40,10.80
2014,04,12,11,41,10.80
2014,04,12,11,42,10.80
2014,04,12,11,43,10.90
2014,04,12,11,44,10.90
2014,04,12,11,45,11.00
2014,04,12,11,46,11.00
2014,04,12,11,47,11.10
2014,04,12,11,48,11.10
2014,04,12,11,49,11.00
2014,04,12,11,50,11.00
2014,04,12,11,51,11.00
2014,04,12,11,52,11.00
2014,04,12,11,53,10.90
2014,04,12,11,54,10.90
2014,04,12,11,55,10.90
2014,04,12,11,56,11.00
2014,04,12,11,57,11.00
2014,04,12,11,58,11.00
2014,04,12,11,59,11.00
2014,04,12,12,00,11.00
2014,04,12,12,01,11.00
2014,04,12,12,02,11.10
2014,04,12,12,03,11.10
2014,04,12,12,04,11.20
2014,04,12,12,05,11.30
2014,04,12,12,06,11.30
2014,04,12,12,07,11.30
2014,04,12,12,08,11.40
2014,04,12,12,09,11.40
2014,04,12,12,10,11.40
2014,04,12,12,11,11.40
2014,04,12,12,12,11.40
2014,04,12,12,13,11.30
2014,04,12,12,14,11.30
2014,04,12,12,15,11.20
2014,04,12,12,16,11.10
2014,04,12,12,17,11.00
2014,04,12,12,18,10.90
2014,04,12,12,19,10.90
2014,04,12,12,20,11.00
2014,04,12,12,21,11.00
2014,04,12,12,22,11.00
2014,04,12,12,23,11.10
2014,04,12,12,24,11.10
2014,04,12,12,25,11.20
2014,04,12,12,26,11.20
2014,04,12,12,27,11.20
2014,04,12,12,28,11.20
2014,04,12,12,29,11.20
2014,04,12,12,30,11.20
2014,04,12,12,31,11.30
2014,04,12,12,32,11.30
2014,04,12,12,33,11.40
2014,04,12,12,34,11.40
2014,04,12,12,35,11.40
2014,04,12,12,36,11.40
2014,04,12,12,37,11.40
2014,04,12,12,38,11.40
2014,04,12,12,39,11.40
2014,04,12,12,40,11.30
2014,04,12,12,41,11.30
2014,04,12,12,42,11.40
2014,04,12,12,43,11.40
2014,04,12,12,44,11.40
2014,04,12,12,45,11.50
2014,04,12,12,46,11.60
2014,04,12,12,47,11.70
2014,04,12,12,48,11.70
2014,04,12,12,49,11.80
2014,04,12,12,50,11.90
2014,04,12,12,51,12.00
2014,04,12,12,52,12.10
2014,04,12,12,53,12.10
2014,04,12,12,54,12.20
2014,04,12,12,55,12.20
2014,04,12,12,56,12.30
2014,04,12,12,57,12.20
2014,04,12,12,58,12.20
2014,04,12,12,59,12.20
2014,04,12,13,00,12.20
2014,04,12,13,01,12.20
2014,04,12,13,02,12.20
2014,04,12,13,03,12.30
2014,04,12,13,04,12.30
2014,04,12,13,05,12.30
2014,04,12,13,06,12.30
2014,04,12,13,07,12.20
2014,04,12,13,08,12.10
2014,04,12,13,09,12.20
2014,04,12,13,10,12.20
2014,04,12,13,11,12.20
2014,04,12,13,12,12.20
2014,04,12,13,13,12.20
2014,04,12,13,14,12.20
2014,04,12,13,15,12.20
2014,04,12,13,16,12.30
2014,04,12,13,17,12.30
2014,04,12,13,18,12.30
2014,04,12,13,19,12.30
2014,04,12,13,20,12.30
2014,04,12,13,21,12.30
2014,04,12,13,22,12.30
2014,04,12,13,23,12.30
2014,04,12,13,24,12.30
2014,04,12,13,25,12.40
2014,04,12,13,26,12.50
2014,04,12,13,27,12.50
2014,04,12,13,28,12.60
2014,04,12,13,29,12.60
2014,04,12,13,30,12.70
2014,04,12,13,31,12.70
2014,04,12,13,32,12.80
2014,04,12,13,33,12.80
2014,04,12,13,34,12.80
2014,04,12,13,35,12.80
2014,04,12,13,36,12.80
2014,04,12,13,37,12.90
2014,04,12,13,38,12.90
2014,04,12,13,39,12.90
2014,04,12,13,40,12.90
2014,04,12,13,41,12.90
2014,04,12,13,42,12.90
2014,04,12,13,43,12.90
2014,04,12,13,44,12.90
2014,04,12,13,45,13.00
2014,04,12,13,46,13.00
2014,04,12,13,47,13.10
2014,04,12,13,48,13.20
2014,04,12,13,49,13.20
2014,04,12,13,50,13.30
2014,04,12,13,51,13.30
2014,04,12,13,52,13.30
2014,04,12,13,53,13.30
2014,04,12,13,54,13.30
2014,04,12,13,55,13.30
2014,04,12,13,56,13.30
2014,04,12,13,57,13.30
2014,04,12,13,58,13.30
2014,04,12,13,59,13.30
2014,04,12,14,00,13.30
2014,04,12,14,01,13.30
2014,04,12,14,02,13.30
2014,04,12,14,03,13.40
2014,04,12,14,04,13.40
2014,04,12,14,05,13.50
2014,04,12,14,06,13.60
2014,04,12,14,07,13.80
2014,04,12,14,08,13.90
2014,04,12,14,09,13.90
2014,04,12,14,10,14.00
2014,04,12,14,11,14.00
2014,04,12,14,12,13.90
2014,04,12,14,13,13.90
2014,04,12,14,14,13.90
2014,04,12,14,15,13.90
2014,04,12,14,16,13.90
2014,04,12,14,17,13.80
2014,04,12,14,18,13.80
2014,04,12,14,19,13.80
2014,04,12,14,20,13.70
2014,04,12,14,21,13.80
2014,04,12,14,22,13.80
2014,04,12,14,23,13.90
2014,04,12,14,24,13.90
2014,04,12,14,25,14.00
2014,04,12,14,26,14.00
2014,04,12,14,27,14.00
2014,04,12,14,28,14.10
2014,04,12,14,29,14.10
2014,04,12,14,30,14.10
2014,04,12,14,31,14.10
2014,04,12,14,32,14.10
2014,04,12,14,33,14.10
2014,04,12,14,34,14.10
2014,04,12,14,35,14.10
2014,04,12,14,36,14.20
2014,04,12,14,37,14.20
2014,04,12,14,38,14.30
2014,04,12,14,39,14.30
2014,04,12,14,40,14.40
2014,04,12,14,41,14.40
2014,04,12,14,42,14.50
2014,04,12,14,43,14.60
2014,04,12,14,44,14.60
2014,04,12,14,45,14.60
2014,04,12,14,46,14.60
2014,04,12,14,47,14.60
2014,04,12,14,48,14.60
2014,04,12,14,49,14.60
2014,04,12,14,50,14.60
2014,04,12,14,51,14.60
2014,04,12,14,52,14.60
2014,04,12,14,53,14.60
2014,04,12,14,54,14.70
2014,04,12,14,55,14.70
2014,04,12,14,56,14.70
2014,04,12,14,57,14.60
2014,04,12,14,58,14.60
2014,04,12,14,59,14.60
2014,04,12,15,00,14.60
2014,04,12,15,01,14.60
2014,04,12,15,02,14.60
2014,04,12,15,03,14.70
2014,04,12,15,04,14.70
2014,04,12,15,05,14.80
2014,04,12,15,06,14.80
2014,04,12,15,07,14.80
2014,04,12,15,08,14.80
2014,04,12,15,09,14.80
2014,04,12,15,10,14.80
2014,04,12,15,11,14.90
2014,04,12,15,12,14.90
2014,04,12,15,13,14.90
2014,04,12,15,14,15.00
2014,04,12,15,15,15.00
2014,04,12,15,16,15.10
2014,04,12,15,17,15.20
2014,04,12,15,18,15.20
2014,04,12,15,19,15.20
2014,04,12,15,20,15.20
2014,04,12,15,21,15.30
2014,04,12,15,22,15.30
2014,04,12,15,23,15.30
2014,04,12,15,24,15.40
2014,04,12,15,25,15.40
2014,04,12,15,26,15.30
2014,04,12,15,27,15.30
2014,04,12,15,28,15.30
2014,04,12,15,29,15.30
2014,04,12,15,30,15.30
2014,04,12,15,31,15.30
2014,04,12,15,32,15.30
2014,04,12,15,33,15.30
2014,04,12,15,34,15.30
2014,04,12,15,35,15.40
2014,04,12,15,36,15.40
2014,04,12,15,37,15.40
2014,04,12,15,38,15.40
2014,04,12,15,39,15.50
2014,04,12,15,40,15.60
2014,04,12,15,41,15.70
2014,04,12,15,42,15.70
2014,04,12,15,43,15.80
2014,04,12,15,44,15.90
2014,04,12,15,45,16.00
2014,04,12,15,46,16.10
2014,04,12,15,47,16.20
2014,04,12,15,48,16.30
2014,04,12,15,49,16.30
2014,04,12,15,50,16.40
2014,04,12,15,51,16.40
2014,04,12,15,52,16.40
2014,04,12,15,53,16.40
2014,04,12,15,54,16.30
2014,04,12,15,55,16.30
2014,04,12,15,56,16.30
2014,04,12,15,57,16.20
2014,04,12,15,58,16.20
2014,04,12,15,59,16.20
2014,04,12,16,00,16.20
2014,04,12,16,01,16.20
2014,04,12,16,02,16.20
2014,04,12,16,03,16.20
2014,04,12,16,04,16.20
2014,04,12,16,05,16.20
2014,04,12,16,06,16.20
2014,04,12,16,07,16.20
2014,04,12,16,08,16.10
2014,04,12,16,09,16.10
2014,04,12,16,10,16.10
2014,04,12,16,11,16.10
2014,04,12,16,12,16.20
2014,04,12,16,13,16.20
2014,04,12,16,14,16.20
2014,04,12,16,15,16.20
2014,04,12,16,16,16.30
2014,04,12,16,17,16.30
2014,04,12,16,18,16.40
2014,04,12,16,19,16.50
2014,04,12,16,20,16.60
2014,04,12,16,21,16.60
2014,04,12,16,22,16.70
2014,04,12,16,23,16.80
2014,04,12,16,24,16.80
2014,04,12,16,25,16.80
2014,04,12,16,26,16.80
2014,04,12,16,27,16.80
2014,04,12,16,28,16.70
2014,04,12,16,29,16.70
2014,04,12,16,30,16.70
2014,04,12,16,31,16.70
2014,04,12,16,32,16.70
2014,04,12,16,33,16.70
2014,04,12,16,34,16.60
2014,04,12,16,35,16.60
2014,04,12,16,36,16.60
2014,04,12,16,37,16.60
2014,04,12,16,38,16.60
2014,04,12,16,39,16.60
2014,04,12,16,40,16.60
2014,04,12,16,41,16.50
2014,04,12,16,42,16.50
2014,04,12,16,43,16.50
2014,04,12,16,44,16.60
2014,04,12,16,45,16.60
2014,04,12,16,46,16.70
2014,04,12,16,47,16.80
2014,04,12,16,48,16.80
2014,04,12,16,49,16.80
2014,04,12,16,50,16.80
2014,04,12,16,51,16.80
2014,04,12,16,52,16.80
2014,04,12,16,53,16.70
2014,04,12,16,54,16.70
2014,04,12,16,55,16.70
2014,04,12,16,56,16.70
2014,04,12,16,57,16.70
2014,04,12,16,58,16.70
2014,04,12,16,59,16.70
2014,04,12,17,00,16.70
2014,04,12,17,01,16.70
2014,04,12,17,02,16.70
2014,04,12,17,03,16.70
2014,04,12,17,04,16.70
2014,04,12,17,05,16.70
2014,04,12,17,06,16.70
2014,04,12,17,07,16.70
2014,04,12,17,08,16.70
2014,04,12,17,09,16.70
2014,04,12,17,10,16.70
2014,04,12,17,11,16.70
2014,04,12,17,12,16.70
2014,04,12,17,13,16.60
2014,04,12,17,14,16.60
2014,04,12,17,15,16.50
2014,04,12,17,16,16.50
2014,04,12,17,17,16.50
2014,04,12,17,18,16.60
2014,04,12,17,19,16.60
2014,04,12,17,20,16.60
2014,04,12,17,21,16.70
2014,04,12,17,22,16.70
2014,04,12,17,23,16.70
2014,04,12,17,24,16.70
2014,04,12,17,25,16.70
2014,04,12,17,26,16.70
2014,04,12,17,27,16.80
2014,04,12,17,28,16.80
2014,04,12,17,29,16.80
2014,04,12,17,30,16.70
2014,04,12,17,31,16.70
2014,04,12,17,32,16.70
2014,04,12,17,33,16.70
2014,04,12,17,34,16.70
2014,04,12,17,35,16.70
2014,04,12,17,36,16.60
2014,04,12,17,37,16.60
2014,04,12,17,38,16.50
2014,04,12,17,39,16.40
2014,04,12,17,40,16.40
2014,04,12,17,41,16.30
2014,04,12,17,42,16.20
2014,04,12,17,43,16.10
2014,04,12,17,44,16.00
2014,04,12,17,45,16.00
2014,04,12,17,46,15.90
2014,04,12,17,47,15.90
2014,04,12,17,48,15.80